Weather History for KFET - November, 2012

Change the Weather History Date:

Saturday, November 3, 2012

  Actual Average Record
Temperature  
Mean Temperature 40 °F -  
Max Temperature 54 °F 52 °F 80 °F (1978)
Min Temperature 27 °F 34 °F 8 °F (1991)
Degree Days  
Heating Degree Days 24    
Moisture  
Dew Point 32 °F    
Average Humidity 77    
Maximum Humidity 98    
Minimum Humidity 50    
Precipitation  
Precipitation 0.00 in - - ()
Sea Level Pressure  
Sea Level Pressure 30.17 in    
Wind  
Wind Speed 4 mph (WNW)    
Max Wind Speed 8 mph    
Max Gust Speed -    
Visibility 10 miles    
Events      
Averages and records for this station are not official NWS values.
T = Trace of Precipitation, MM = Missing Value Source: NWS Daily Summary

Daily Weather History Graph

Daily Weather History Graph

Search for Another Location

Airport or City:

Trip Planner

Search our weather history database for the weather conditions in past years. The results will help you decide how hot, cold, wet, or windy it might be!

Date:

Astronomy

Nov. 03, 2012 Rise Set
Actual Time 8:00 AM CDT 6:17 PM CDT
Civil Twilight 7:31 AM CDT 6:46 PM CDT
Nautical Twilight 6:58 AM CDT 7:19 PM CDT
Astronomical Twilight 6:26 AM CDT 7:51 PM CDT
Moon 9:59 PM CDT (11/3) 12:06 PM CDT (11/3)
Length of Visible Light 11h 15m
Length of Day
10h 17m
Waning Gibbous, 80% of the Moon is Illuminated
Nov 3
Waning Gibbous
Nov 6
Last Quarter
Nov 13
New
Nov 20
First Quarter
Nov 28
Full

Hourly Weather History & Observations

Time (CDT) Temp. Windchill Dew Point Humidity Pressure Visibility Wind Dir Wind Speed Gust Speed Precip Events Conditions
12:15 AM 33.4 °F 30.4 °F 29.8 °F 87% 30.10 in 10.0 mi West 3.5 mph - N/A   Clear
12:35 AM 33.6 °F 30.6 °F 29.7 °F 85% 30.10 in 10.0 mi NW 3.5 mph - N/A   Clear
12:55 AM 33.6 °F 30.6 °F 29.3 °F 84% 30.11 in 10.0 mi NNW 3.5 mph - N/A   Clear
1:15 AM 32.7 °F 27.3 °F 29.1 °F 87% 30.11 in 10.0 mi NW 5.8 mph - N/A   Clear
1:35 AM 32.4 °F 29.1 °F 29.1 °F 88% 30.11 in 10.0 mi NW 3.5 mph - N/A   Clear
1:55 AM 32.0 °F 28.7 °F 28.8 °F 88% 30.11 in 10.0 mi WNW 3.5 mph - N/A   Clear
2:15 AM 32.2 °F 27.7 °F 29.1 °F 88% 30.11 in 10.0 mi NW 4.6 mph - N/A   Clear
2:35 AM 32.4 °F 27.9 °F 29.3 °F 88% 30.11 in 10.0 mi NW 4.6 mph - N/A   Clear
2:55 AM 32.0 °F 28.7 °F 28.9 °F 88% 30.11 in 10.0 mi NW 3.5 mph - N/A   Clear
3:15 AM 32.0 °F 28.7 °F 28.8 °F 88% 30.12 in 10.0 mi NW 3.5 mph - N/A   Clear
3:35 AM 30.4 °F - 27.7 °F 90% 30.12 in 10.0 mi Calm Calm - N/A   Clear
3:55 AM 30.0 °F 26.5 °F 27.7 °F 91% 30.13 in 10.0 mi NW 3.5 mph - N/A   Clear
4:15 AM 29.7 °F 26.1 °F 27.5 °F 92% 30.13 in 10.0 mi WNW 3.5 mph - N/A   Clear
4:35 AM 29.5 °F 25.9 °F 27.7 °F 93% 30.13 in 10.0 mi WNW 3.5 mph - N/A   Clear
4:55 AM 28.0 °F 20.8 °F 26.4 °F 94% 30.14 in 10.0 mi WNW 6.9 mph - N/A   Clear
5:15 AM 29.1 °F 23.0 °F 27.7 °F 94% 30.14 in 10.0 mi West 5.8 mph - N/A   Clear
5:35 AM 28.8 °F 22.6 °F 27.5 °F 95% 30.15 in 10.0 mi West 5.8 mph - N/A   Clear
5:55 AM 28.4 °F 22.2 °F 27.3 °F 96% 30.16 in 10.0 mi West 5.8 mph - N/A   Clear
6:15 AM 27.9 °F 22.6 °F 27.0 °F 96% 30.16 in 10.0 mi West 4.6 mph - N/A   Clear
6:35 AM 27.5 °F 21.1 °F 26.6 °F 96% 30.16 in 10.0 mi West 5.8 mph - N/A   Clear
6:55 AM 27.9 °F 20.6 °F 27.3 °F 98% 30.17 in 10.0 mi West 6.9 mph - N/A   Clear
7:15 AM 28.4 °F 22.2 °F 27.5 °F 96% 30.17 in 10.0 mi West 5.8 mph - N/A   Clear
7:35 AM 28.2 °F 23.1 °F 27.5 °F 97% 30.18 in 10.0 mi West 4.6 mph - N/A   Clear
7:55 AM 28.9 °F 21.1 °F 28.0 °F 96% 30.19 in 10.0 mi West 8.1 mph - N/A   Clear
8:15 AM 28.4 °F 23.3 °F 27.5 °F 96% 30.19 in 10.0 mi West 4.6 mph - N/A   Clear
8:35 AM 28.2 °F 22.0 °F 27.3 °F 96% 30.19 in 10.0 mi WNW 5.8 mph - N/A   Clear
8:55 AM 30.0 °F 25.2 °F 28.6 °F 94% 30.20 in 10.0 mi West 4.6 mph - N/A   Clear
9:15 AM 31.8 °F 26.2 °F 30.0 °F 93% 30.21 in 10.0 mi WNW 5.8 mph - N/A   Clear
9:35 AM 33.4 °F 28.1 °F 31.5 °F 92% 30.21 in 10.0 mi WNW 5.8 mph - N/A   Clear
9:55 AM 34.9 °F 29.9 °F 32.0 °F 89% 30.21 in 10.0 mi WNW 5.8 mph - N/A   Clear
10:15 AM 36.9 °F 32.2 °F 32.4 °F 84% 30.21 in 10.0 mi NW 5.8 mph - N/A   Clear
10:35 AM 39.0 °F 35.7 °F 33.4 °F 80% 30.21 in 10.0 mi WNW 4.6 mph - N/A   Clear
10:55 AM 42.3 °F 39.4 °F 34.9 °F 75% 30.21 in 10.0 mi NNW 4.6 mph - N/A   Clear
11:15 AM 44.2 °F 41.0 °F 34.3 °F 68% 30.22 in 10.0 mi NW 5.8 mph - N/A   Clear
11:35 AM 45.7 °F 43.4 °F 34.3 °F 65% 30.22 in 10.0 mi NNW 4.6 mph - N/A   Clear
11:55 AM 47.3 °F - 33.6 °F 59% 30.22 in 10.0 mi NNW 6.9 mph - N/A   Clear
12:15 PM 48.9 °F - 33.4 °F 55% 30.22 in 10.0 mi North 6.9 mph - N/A   Scattered Clouds
12:35 PM 49.8 °F - 33.6 °F 54% 30.22 in 10.0 mi NNW 6.9 mph - N/A   Scattered Clouds
12:55 PM 49.6 °F - 33.4 °F 54% 30.21 in 10.0 mi WNW 8.1 mph - N/A   Scattered Clouds
1:15 PM 50.5 °F - 33.6 °F 52% 30.21 in 10.0 mi NW 5.8 mph - N/A   Scattered Clouds
1:35 PM 51.4 °F - 33.8 °F 51% 30.20 in 10.0 mi NW 4.6 mph - N/A   Clear
1:55 PM 51.4 °F - 34.2 °F 52% 30.20 in 10.0 mi NNW 5.8 mph - N/A   Clear
2:15 PM 52.3 °F - 34.5 °F 51% 30.19 in 10.0 mi WNW 3.5 mph - N/A   Clear
2:35 PM 52.7 °F - 34.9 °F 51% 30.19 in 10.0 mi Calm Calm - N/A   Clear
2:55 PM 53.1 °F - 35.6 °F 52% 30.18 in 10.0 mi Calm Calm - N/A   Clear
3:15 PM 53.2 °F - 35.6 °F 51% 30.18 in 10.0 mi Calm Calm - N/A   Clear
3:35 PM 54.0 °F - 36.1 °F 51% 30.17 in 10.0 mi WNW 4.6 mph - N/A   Clear
3:55 PM 54.5 °F - 36.7 °F 51% 30.17 in 10.0 mi NW 4.6 mph - N/A   Clear
4:15 PM 53.8 °F - 35.8 °F 51% 30.17 in 10.0 mi Calm Calm - N/A   Clear
4:35 PM 54.5 °F - 36.3 °F 50% 30.17 in 10.0 mi Calm Calm - N/A   Clear
4:55 PM 54.1 °F - 36.3 °F 51% 30.17 in 10.0 mi NW 4.6 mph - N/A   Clear
5:15 PM 53.6 °F - 36.9 °F 53% 30.17 in 10.0 mi NW 3.5 mph - N/A   Clear
5:35 PM 52.7 °F - 37.0 °F 55% 30.17 in 10.0 mi NNW 3.5 mph - N/A   Clear
5:55 PM 51.8 °F - 36.5 °F 56% 30.17 in 10.0 mi Calm Calm - N/A   Clear
6:15 PM 50.4 °F - 36.5 °F 59% 30.18 in 10.0 mi Calm Calm - N/A   Clear
6:35 PM 48.9 °F - 36.0 °F 61% 30.18 in 10.0 mi Calm Calm - N/A   Clear
6:55 PM 44.8 °F - 35.6 °F 70% 30.19 in 10.0 mi Calm Calm - N/A   Clear
7:15 PM 44.4 °F - 35.6 °F 71% 30.19 in 10.0 mi Calm Calm - N/A   Clear
7:35 PM 42.4 °F - 35.6 °F 77% 30.19 in 10.0 mi Calm Calm - N/A   Scattered Clouds
7:55 PM 43.7 °F - 36.0 °F 74% 30.19 in 10.0 mi Calm Calm - N/A   Overcast
8:15 PM 42.4 °F - 35.6 °F 77% 30.19 in 10.0 mi Calm Calm - N/A   Overcast
8:35 PM 41.5 °F - 35.4 °F 79% 30.19 in 10.0 mi Calm Calm - N/A   Scattered Clouds
8:55 PM 40.8 °F - 35.6 °F 82% 30.19 in 10.0 mi Calm Calm - N/A   Mostly Cloudy
9:15 PM 40.6 °F - 36.0 °F 83% 30.19 in 10.0 mi Calm Calm - N/A   Mostly Cloudy
9:35 PM 41.2 °F - 36.3 °F 83% 30.19 in 10.0 mi Calm Calm - N/A   Mostly Cloudy
9:55 PM 41.0 °F - 36.5 °F 84% 30.19 in 10.0 mi Calm Calm - N/A   Overcast
10:15 PM 40.1 °F - 36.0 °F 85% 30.20 in 10.0 mi Calm Calm - N/A   Overcast
10:35 PM 39.9 °F - 36.1 °F 86% 30.19 in 10.0 mi Calm Calm - N/A   Mostly Cloudy
10:55 PM 39.7 °F - 35.8 °F 86% 30.19 in 10.0 mi Calm Calm - N/A   Mostly Cloudy
11:15 PM 39.9 °F - 36.7 °F 88% 30.19 in 10.0 mi Calm Calm - N/A   Overcast
11:35 PM 41.0 °F - 36.5 °F 84% 30.19 in 7.0 mi Calm Calm - N/A   Overcast
11:55 PM 38.8 °F - 35.1 °F 86% 30.18 in 7.0 mi Calm Calm - N/A   Mostly Cloudy